����,���ϕ���(m/s),���ϕ���,�ő�u�ԕ���(m/s),�ő啗��������,�C��(��),���x(%),10���Ԉړ��ώZ�J��(mm),1���Ԉړ��ώZ�J��(mm),���J��(mm),�݌v�J��(mm),����(���ώZ)(MJ/m2),����(���ώZ)(min),���n�C��(hPa),�C�ʋC��(hPa)
2024-03-11T00:00:00+09:00,0.3,�k,1.2,�k,0,87,0,0,0,0,17.99,543,1016.7,1031.5
2024-03-11T00:01:00+09:00,0.3,�k,0.9,�k,0,87.4,0,0,0,0,0,0,1016.7,1031.5
2024-03-11T00:02:00+09:00,0.3,�k,0.9,�k,0,87.2,0,0,0,0,0,0,1016.7,1031.5
2024-03-11T00:03:00+09:00,0.3,�k,0.9,�k,0.1,87.1,0,0,0,0,0,0,1016.7,1031.5
2024-03-11T00:04:00+09:00,0.3,�k,0.9,�k,0,86.5,0,0,0,0,0,0,1016.8,1031.6
2024-03-11T00:05:00+09:00,0.3,�k,0.9,�k,0,86.4,0,0,0,0,0,0,1016.7,1031.5
2024-03-11T00:06:00+09:00,0.3,�k,0.9,�k,0.1,87.4,0,0,0,0,0,0,1016.8,1031.6
2024-03-11T00:07:00+09:00,0.3,�k,0.9,�k,0,86.9,0,0,0,0,0,0,1016.7,1031.5
2024-03-11T00:08:00+09:00,0.4,�k,1,�k�k��,0,86.7,0,0,0,0,0,0,1016.7,1031.5
2024-03-11T00:09:00+09:00,0.4,�k,1.1,�k�k��,0.1,86.9,0,0,0,0,0,0,1016.6,1031.4
2024-03-11T00:10:00+09:00,0.5,�k,1.1,�k�k��,0.2,86.9,0,0,0,0,0,0,1016.7,1031.5
2024-03-11T00:11:00+09:00,0.5,�k,1.1,�k�k��,0.1,86.3,0,0,0,0,0,0,1016.7,1031.5
2024-03-11T00:12:00+09:00,0.5,�k,1.1,�k�k��,0,86,0,0,0,0,0,0,1016.6,1031.4
2024-03-11T00:13:00+09:00,0.5,�k,1.1,�k�k��,0,86.4,0,0,0,0,0,0,1016.6,1031.4
2024-03-11T00:14:00+09:00,0.6,�k,1.1,�k�k��,0,86.8,0,0,0,0,0,0,1016.6,1031.4
2024-03-11T00:15:00+09:00,0.6,�k,1.1,�k�k��,0,86.6,0,0,0,0,0,0,1016.6,1031.4
2024-03-11T00:16:00+09:00,0.6,�k�k��,1.1,�k�k��,0,87,0,0,0,0,0,0,1016.5,1031.3
2024-03-11T00:17:00+09:00,0.7,�k�k��,1.1,�k�k��,0,86.9,0,0,0,0,0,0,1016.5,1031.3
2024-03-11T00:18:00+09:00,0.7,�k�k��,1.1,�k�k��,0,87.2,0,0,0,0,0,0,1016.5,1031.3
2024-03-11T00:19:00+09:00,0.6,�k�k��,1.1,�k�k��,0,87,0,0,0,0,0,0,1016.5,1031.3
2024-03-11T00:20:00+09:00,0.6,�k�k��,1.1,�k�k��,-0.1,87.2,0,0,0,0,0,0,1016.6,1031.4
2024-03-11T00:21:00+09:00,0.6,�k�k��,1.1,�k�k��,-0.2,87.1,0,0,0,0,0,0,1016.6,1031.4
2024-03-11T00:22:00+09:00,0.6,�k�k��,1.1,�k�k��,-0.1,87.1,0,0,0,0,0,0,1016.6,1031.4
2024-03-11T00:23:00+09:00,0.6,�k�k��,1.1,�k�k��,0,88,0,0,0,0,0,0,1016.7,1031.5
2024-03-11T00:24:00+09:00,0.6,�k,1.1,�k�k��,-0.1,87.4,0,0,0,0,0,0,1016.7,1031.5
2024-03-11T00:25:00+09:00,0.6,�k,1.1,�k�k��,-0.1,87.7,0,0,0,0,0,0,1016.6,1031.4
2024-03-11T00:26:00+09:00,0.6,�k,1.1,�k�k��,-0.2,87.6,0,0,0,0,0,0,1016.6,1031.4
2024-03-11T00:27:00+09:00,0.5,�k,1.1,�k�k��,-0.2,87.9,0,0,0,0,0,0,1016.7,1031.5
2024-03-11T00:28:00+09:00,0.5,�k,1.1,�k�k��,-0.3,87.5,0,0,0,0,0,0,1016.7,1031.5
2024-03-11T00:29:00+09:00,0.5,�k,1.1,�k�k��,-0.3,87.8,0,0,0,0,0,0,1016.7,1031.5
2024-03-11T00:30:00+09:00,0.5,�k,1.1,�k�k��,-0.4,87.7,0,0,0,0,0,0,1016.7,1031.5
2024-03-11T00:31:00+09:00,0.5,�k�k��,1.1,�k�k��,-0.3,88.4,0,0,0,0,0,0,1016.7,1031.5
2024-03-11T00:32:00+09:00,0.5,�k�k��,1.1,�k�k��,-0.3,88.4,0,0,0,0,0,0,1016.7,1031.5
2024-03-11T00:33:00+09:00,0.4,�k��,1.1,�k�k��,-0.3,88.4,0,0,0,0,0,0,1016.7,1031.5
2024-03-11T00:34:00+09:00,0.4,�k��,1.1,��,-0.4,88.3,0,0,0,0,0,0,1016.7,1031.5
2024-03-11T00:35:00+09:00,0.4,�k��,1.1,��,-0.4,88.5,0,0,0,0,0,0,1016.7,1031.5
2024-03-11T00:36:00+09:00,0.4,���k��,1.1,��,-0.4,88.6,0,0,0,0,0,0,1016.7,1031.5
2024-03-11T00:37:00+09:00,0.5,���k��,1.1,��,-0.3,89,0,0,0,0,0,0,1016.7,1031.5
2024-03-11T00:38:00+09:00,0.5,���k��,1.1,��,-0.3,89,0,0,0,0,0,0,1016.7,1031.5
2024-03-11T00:39:00+09:00,0.6,���k��,1.1,��,-0.3,88.7,0,0,0,0,0,0,1016.7,1031.5
2024-03-11T00:40:00+09:00,0.6,���k��,1.1,��,-0.4,88.4,0,0,0,0,0,0,1016.7,1031.5
2024-03-11T00:41:00+09:00,0.6,��,1,���쐼,-0.6,88.1,0,0,0,0,0,0,1016.7,1031.6
2024-03-11T00:42:00+09:00,0.6,��,1,���쐼,-0.5,88.3,0,0,0,0,0,0,1016.6,1031.5
2024-03-11T00:43:00+09:00,0.6,��,1,���쐼,-0.5,89.1,0,0,0,0,0,0,1016.6,1031.5
2024-03-11T00:44:00+09:00,0.6,��,1,���쐼,-0.4,88.9,0,0,0,0,0,0,1016.7,1031.5
2024-03-11T00:45:00+09:00,0.5,��,1,���쐼,-0.3,88.9,0,0,0,0,0,0,1016.6,1031.4
2024-03-11T00:46:00+09:00,0.5,��,1,���쐼,-0.4,88.8,0,0,0,0,0,0,1016.7,1031.5
2024-03-11T00:47:00+09:00,0.5,��,1,���쐼,-0.4,88.6,0,0,0,0,0,0,1016.6,1031.4
2024-03-11T00:48:00+09:00,0.5,��,1,���쐼,-0.5,88.6,0,0,0,0,0,0,1016.6,1031.5
2024-03-11T00:49:00+09:00,0.4,��,0.9,��,-0.6,88.4,0,0,0,0,0,0,1016.6,1031.5
2024-03-11T00:50:00+09:00,0.4,��,0.9,��,-0.5,88.6,0,0,0,0,0,0,1016.5,1031.4
2024-03-11T00:51:00+09:00,0.5,��,1.2,���k��,-0.4,88.9,0,0,0,0,0,0,1016.6,1031.4
2024-03-11T00:52:00+09:00,0.5,��,1.2,���k��,-0.4,89.1,0,0,0,0,0,0,1016.6,1031.4
2024-03-11T00:53:00+09:00,0.6,��,1.2,���k��,-0.4,88.3,0,0,0,0,0,0,1016.6,1031.4
2024-03-11T00:54:00+09:00,0.6,��,1.2,���k��,-0.3,88.3,0,0,0,0,0,0,1016.5,1031.3
2024-03-11T00:55:00+09:00,0.7,��,1.2,���k��,-0.3,87.7,0,0,0,0,0,0,1016.4,1031.2
2024-03-11T00:56:00+09:00,0.7,��,1.2,���k��,-0.2,87.6,0,0,0,0,0,0,1016.5,1031.3
2024-03-11T00:57:00+09:00,0.8,��,1.2,���k��,-0.3,87.2,0,0,0,0,0,0,1016.5,1031.3
2024-03-11T00:58:00+09:00,0.8,��,1.2,���k��,-0.5,86.3,0,0,0,0,0,0,1016.5,1031.4
2024-03-11T00:59:00+09:00,0.8,��,1.2,���k��,-0.5,86.3,0,0,0,0,0,0,1016.4,1031.2
2024-03-11T01:00:00+09:00,0.9,��,1.2,���k��,-0.6,86.5,0,0,0,0,0,0,1016.4,1031.3
2024-03-11T01:01:00+09:00,0.8,��,1.2,��,-0.5,87,0,0,0,0,0,0,1016.4,1031.2
2024-03-11T01:02:00+09:00,0.8,��,1.2,��,-0.6,87.1,0,0,0,0,0,0,1016.4,1031.3
2024-03-11T01:03:00+09:00,0.8,��,1.1,��,-0.5,87.1,0,0,0,0,0,0,1016.4,1031.2
2024-03-11T01:04:00+09:00,0.7,��,1,���k��,-0.4,87.6,0,0,0,0,0,0,1016.3,1031.1
2024-03-11T01:05:00+09:00,0.7,��,1,���k��,-0.5,87.2,0,0,0,0,0,0,1016.3,1031.1
2024-03-11T01:06:00+09:00,0.7,��,1.1,��,-0.6,86.6,0,0,0,0,0,0,1016.3,1031.2
2024-03-11T01:07:00+09:00,0.7,��,1.1,��,-0.5,87.1,0,0,0,0,0,0,1016.3,1031.1
2024-03-11T01:08:00+09:00,0.7,��,1.1,��,-0.6,87,0,0,0,0,0,0,1016.3,1031.2
2024-03-11T01:09:00+09:00,0.8,��,1.1,��,-0.5,87.1,0,0,0,0,0,0,1016.3,1031.1
2024-03-11T01:10:00+09:00,0.8,��,1.1,��,-0.6,87.7,0,0,0,0,0,0,1016.3,1031.2
2024-03-11T01:11:00+09:00,0.8,��,1.2,���k��,-0.6,87.3,0,0,0,0,0,0,1016.3,1031.2
2024-03-11T01:12:00+09:00,0.8,��,1.2,���k��,-0.8,86.9,0,0,0,0,0,0,1016.3,1031.2
2024-03-11T01:13:00+09:00,0.8,���k��,1.2,���k��,-0.8,87.2,0,0,0,0,0,0,1016.3,1031.2
2024-03-11T01:14:00+09:00,0.7,���k��,1.2,���k��,-0.8,87.4,0,0,0,0,0,0,1016.3,1031.2
2024-03-11T01:15:00+09:00,0.7,��,1.2,���k��,-0.6,88.1,0,0,0,0,0,0,1016.3,1031.2
2024-03-11T01:16:00+09:00,0.6,��,1.2,���k��,-0.6,88.3,0,0,0,0,0,0,1016.2,1031.1
2024-03-11T01:17:00+09:00,0.6,��,1.2,���k��,-0.5,88.2,0,0,0,0,0,0,1016.2,1031
2024-03-11T01:18:00+09:00,0.6,��,1.2,���k��,-0.7,87.5,0,0,0,0,0,0,1016.2,1031.1
2024-03-11T01:19:00+09:00,0.5,��,1.2,���k��,-0.7,87.8,0,0,0,0,0,0,1016.1,1031
2024-03-11T01:20:00+09:00,0.5,��,1.2,���k��,-0.8,87.7,0,0,0,0,0,0,1016.1,1031
2024-03-11T01:21:00+09:00,0.5,��,1.3,��,-0.6,88,0,0,0,0,0,0,1016.2,1031.1
2024-03-11T01:22:00+09:00,0.5,��,1.3,��,-0.4,88.5,0,0,0,0,0,0,1016.1,1030.9
2024-03-11T01:23:00+09:00,0.6,��,1.5,��,-0.5,88,0,0,0,0,0,0,1016.1,1030.9
2024-03-11T01:24:00+09:00,0.7,��,1.5,��,-0.7,86.9,0,0,0,0,0,0,1016.1,1031
2024-03-11T01:25:00+09:00,0.8,��,1.5,��,-0.7,87.1,0,0,0,0,0,0,1016.1,1031
2024-03-11T01:26:00+09:00,0.9,��,1.5,��,-0.6,87.2,0,0,0,0,0,0,1016.2,1031.1
2024-03-11T01:27:00+09:00,0.9,��,1.5,��,-0.5,87.5,0,0,0,0,0,0,1016.1,1030.9
2024-03-11T01:28:00+09:00,1,��,1.5,��,-0.5,87,0,0,0,0,0,0,1016.1,1030.9
2024-03-11T01:29:00+09:00,1.1,��,1.5,��,-0.5,86.8,0,0,0,0,0,0,1016.1,1030.9
2024-03-11T01:30:00+09:00,1.1,��,1.5,��,-0.6,86,0,0,0,0,0,0,1016.1,1030.9
2024-03-11T01:31:00+09:00,1.1,��,1.5,��,-0.6,86.5,0,0,0,0,0,0,1016.1,1030.9
2024-03-11T01:32:00+09:00,1.1,��,1.5,��,-0.6,86.4,0,0,0,0,0,0,1016.2,1031.1
2024-03-11T01:33:00+09:00,1.1,��,1.5,��,-0.7,86.4,0,0,0,0,0,0,1016.1,1031
2024-03-11T01:34:00+09:00,1.1,��,1.5,��,-0.8,86.3,0,0,0,0,0,0,1016.2,1031.1
2024-03-11T01:35:00+09:00,1.1,��,1.5,��,-0.7,86.6,0,0,0,0,0,0,1016.1,1031
2024-03-11T01:36:00+09:00,1.1,��,1.3,��,-0.9,86.4,0,0,0,0,0,0,1016.2,1031.1
2024-03-11T01:37:00+09:00,1.1,��,1.3,��,-0.7,86.9,0,0,0,0,0,0,1016.2,1031.1
2024-03-11T01:38:00+09:00,1.1,��,1.3,��,-0.8,87.3,0,0,0,0,0,0,1016.2,1031.1
2024-03-11T01:39:00+09:00,1.1,��,1.3,��,-0.8,87,0,0,0,0,0,0,1016.2,1031.1
2024-03-11T01:40:00+09:00,1.1,��,1.5,��,-0.9,86.9,0,0,0,0,0,0,1016.2,1031.1
2024-03-11T01:41:00+09:00,1.1,��,1.5,��,-1,87.1,0,0,0,0,0,0,1016.3,1031.2
2024-03-11T01:42:00+09:00,1.1,��,1.5,��,-0.9,87,0,0,0,0,0,0,1016.2,1031.1
2024-03-11T01:43:00+09:00,1.1,��,1.5,��,-0.8,88.3,0,0,0,0,0,0,1016.2,1031.1
2024-03-11T01:44:00+09:00,1.1,��,1.5,��,-0.8,88,0,0,0,0,0,0,1016.3,1031.2
2024-03-11T01:45:00+09:00,1.1,��,1.5,��,-0.9,87.5,0,0,0,0,0,0,1016.2,1031.1
2024-03-11T01:46:00+09:00,1.1,��,1.5,��,-0.6,88.1,0,0,0,0,0,0,1016.1,1030.9
2024-03-11T01:47:00+09:00,1,��,1.5,��,-0.8,87.3,0,0,0,0,0,0,1016.1,1031
2024-03-11T01:48:00+09:00,1,��,1.5,��,-0.9,87.1,0,0,0,0,0,0,1016.1,1031
2024-03-11T01:49:00+09:00,0.9,���k��,1.5,��,-0.7,87.6,0,0,0,0,0,0,1016.1,1031
2024-03-11T01:50:00+09:00,0.8,���k��,1.5,��,-0.8,87.4,0,0,0,0,0,0,1016,1030.9
2024-03-11T01:51:00+09:00,0.7,���k��,1.3,��,-1,87,0,0,0,0,0,0,1015.9,1030.8
2024-03-11T01:52:00+09:00,0.6,�k��,1.1,��,-1.1,87.1,0,0,0,0,0,0,1015.9,1030.8
2024-03-11T01:53:00+09:00,0.6,�k��,1.1,��,-1,87.7,0,0,0,0,0,0,1015.9,1030.8
2024-03-11T01:54:00+09:00,0.6,�k�k��,1.2,�k,-0.8,88.3,0,0,0,0,0,0,1015.9,1030.8
2024-03-11T01:55:00+09:00,0.6,�k�k��,1.2,�k,-0.8,88.4,0,0,0,0,0,0,1015.9,1030.8
2024-03-11T01:56:00+09:00,0.5,�k,1.2,�k,-0.9,88.3,0,0,0,0,0,0,1015.9,1030.8
2024-03-11T01:57:00+09:00,0.5,�k,1.2,�k,-1,88,0,0,0,0,0,0,1015.8,1030.7
2024-03-11T01:58:00+09:00,0.5,�k,1.2,�k,-1,88.3,0,0,0,0,0,0,1015.9,1030.8
2024-03-11T01:59:00+09:00,0.6,�k,1.2,�k,-0.9,89,0,0,0,0,0,0,1015.8,1030.7
2024-03-11T02:00:00+09:00,0.6,�k,1.2,�k,-1,88.9,0,0,0,0,0,0,1015.9,1030.8
2024-03-11T02:01:00+09:00,0.7,�k,1.2,�k,-1,89,0,0,0,0,0,0,1015.9,1030.8
2024-03-11T02:02:00+09:00,0.6,�k,1.2,�k,-1,89.3,0,0,0,0,0,0,1015.8,1030.7
2024-03-11T02:03:00+09:00,0.6,�k,1.2,�k,-0.9,89.6,0,0,0,0,0,0,1015.9,1030.8
2024-03-11T02:04:00+09:00,0.5,�k,1.2,�k�k��,-1.1,89.3,0,0,0,0,0,0,1015.8,1030.7
2024-03-11T02:05:00+09:00,0.5,�k,1.2,�k�k��,-1,89.8,0,0,0,0,0,0,1015.9,1030.8
2024-03-11T02:06:00+09:00,0.4,�k,1.2,�k�k��,-0.9,90.1,0,0,0,0,0,0,1015.9,1030.8
2024-03-11T02:07:00+09:00,0.4,�k�k��,1.2,�k�k��,-1.1,90.1,0,0,0,0,0,0,1015.9,1030.8
2024-03-11T02:08:00+09:00,0.4,�k�k��,1.2,�k�k��,-1.2,89.7,0,0,0,0,0,0,1015.9,1030.8
2024-03-11T02:09:00+09:00,0.3,�k�k��,1.2,�k�k��,-1.1,90.2,0,0,0,0,0,0,1015.8,1030.7
2024-03-11T02:10:00+09:00,0.3,�k�k��,1.1,�k�k��,-1.2,90.2,0,0,0,0,0,0,1015.8,1030.7
2024-03-11T02:11:00+09:00,0.2,�É�,0.7,���k��,-1.2,90.4,0,0,0,0,0,0,1015.8,1030.7
2024-03-11T02:12:00+09:00,0.2,�É�,0.7,���k��,-1.2,90.5,0,0,0,0,0,0,1015.8,1030.7
2024-03-11T02:13:00+09:00,0.2,�É�,0.7,���k��,-1.1,90.9,0,0,0,0,0,0,1015.8,1030.7
2024-03-11T02:14:00+09:00,0.3,�k��,0.7,���k��,-1,91,0,0,0,0,0,0,1015.7,1030.6
2024-03-11T02:15:00+09:00,0.3,�k��,0.7,���k��,-1.1,90.7,0,0,0,0,0,0,1015.7,1030.6
2024-03-11T02:16:00+09:00,0.3,�k��,0.6,�k�k��,-1.1,90.8,0,0,0,0,0,0,1015.7,1030.6
2024-03-11T02:17:00+09:00,0.3,�k��,0.7,��,-1,91.1,0,0,0,0,0,0,1015.8,1030.7
2024-03-11T02:18:00+09:00,0.3,�k��,0.7,��,-1,90.8,0,0,0,0,0,0,1015.8,1030.7
2024-03-11T02:19:00+09:00,0.2,�É�,0.7,��,-1,90.8,0,0,0,0,0,0,1015.9,1030.8
2024-03-11T02:20:00+09:00,0.2,�É�,0.7,��,-1.1,90.7,0,0,0,0,0,0,1015.9,1030.8
2024-03-11T02:21:00+09:00,0.2,�É�,0.7,��,-0.9,91.1,0,0,0,0,0,0,1016,1030.9
2024-03-11T02:22:00+09:00,0.2,�É�,0.7,��,-1,90.6,0,0,0,0,0,0,1016.1,1031
2024-03-11T02:23:00+09:00,0.3,��,0.8,��,-0.9,90.1,0,0,0,0,0,0,1016.1,1031
2024-03-11T02:24:00+09:00,0.3,��,0.8,��,-0.8,90.9,0,0,0,0,0,0,1016.2,1031.1
2024-03-11T02:25:00+09:00,0.3,��,0.9,���k��,-1.2,89.6,0,0,0,0,0,0,1016.2,1031.1
2024-03-11T02:26:00+09:00,0.3,��,0.9,���k��,-1.3,89.1,0,0,0,0,0,0,1016.2,1031.1
2024-03-11T02:27:00+09:00,0.4,��,1.4,���k��,-1.3,89.7,0,0,0,0,0,0,1016.2,1031.1
2024-03-11T02:28:00+09:00,0.5,��,1.7,��,-1.4,89.9,0,0,0,0,0,0,1016.2,1031.1
2024-03-11T02:29:00+09:00,0.7,��,1.9,��,-1.1,90.4,0,0,0,0,0,0,1016.2,1031.1
2024-03-11T02:30:00+09:00,0.8,��,1.9,��,-1,90.8,0,0,0,0,0,0,1016.2,1031.1
2024-03-11T02:31:00+09:00,0.8,��,1.9,��,-0.9,90.3,0,0,0,0,0,0,1016.2,1031.1
2024-03-11T02:32:00+09:00,0.9,��,1.9,��,-1.2,89,0,0,0,0,0,0,1016.1,1031
2024-03-11T02:33:00+09:00,1,��,1.9,��,-1.2,88.9,0,0,0,0,0,0,1016.1,1031
2024-03-11T02:34:00+09:00,1.1,��,1.9,��,-1.2,89.4,0,0,0,0,0,0,1016.1,1031
2024-03-11T02:35:00+09:00,1.1,��,1.9,��,-1.4,89,0,0,0,0,0,0,1016.2,1031.1
2024-03-11T02:36:00+09:00,1.1,��,1.9,��,-1.2,89.7,0,0,0,0,0,0,1016.1,1031
2024-03-11T02:37:00+09:00,1,��,1.9,��,-1.1,90,0,0,0,0,0,0,1016.1,1031
2024-03-11T02:38:00+09:00,0.8,��,1.9,��,-1,90,0,0,0,0,0,0,1016,1030.9
2024-03-11T02:39:00+09:00,0.7,��,1.8,��,-0.9,89.9,0,0,0,0,0,0,1016.1,1031
2024-03-11T02:40:00+09:00,0.6,��,1.8,��,-1,89.4,0,0,0,0,0,0,1016.1,1031
2024-03-11T02:41:00+09:00,0.5,��,1.8,��,-1.2,88.9,0,0,0,0,0,0,1016.1,1031
2024-03-11T02:42:00+09:00,0.4,��,1.8,��,-1.2,88.8,0,0,0,0,0,0,1016,1030.9
2024-03-11T02:43:00+09:00,0.3,��,1.8,��,-1.2,89.1,0,0,0,0,0,0,1015.9,1030.8
2024-03-11T02:44:00+09:00,0.2,�É�,1.1,���쐼,-1.2,89.4,0,0,0,0,0,0,1015.9,1030.8
2024-03-11T02:45:00+09:00,0.2,�É�,0.9,���쐼,-1.3,89.4,0,0,0,0,0,0,1015.9,1030.8
2024-03-11T02:46:00+09:00,0.1,�É�,0.5,��,-1.3,89.8,0,0,0,0,0,0,1015.9,1030.8
2024-03-11T02:47:00+09:00,0.1,�É�,0.5,��,-1.4,89.9,0,0,0,0,0,0,1015.8,1030.7
2024-03-11T02:48:00+09:00,0.1,�É�,0.5,��,-1.4,90.2,0,0,0,0,0,0,1015.8,1030.7
2024-03-11T02:49:00+09:00,0.2,�É�,0.6,�k��,-1.4,90.6,0,0,0,0,0,0,1015.8,1030.7
2024-03-11T02:50:00+09:00,0.2,�É�,1,���k��,-1.5,90.6,0,0,0,0,0,0,1015.8,1030.7
2024-03-11T02:51:00+09:00,0.3,��,1,���k��,-1.4,90.8,0,0,0,0,0,0,1015.8,1030.7
2024-03-11T02:52:00+09:00,0.3,��,1,���k��,-1.5,91.1,0,0,0,0,0,0,1015.8,1030.7
2024-03-11T02:53:00+09:00,0.3,��,1,���k��,-1.5,91,0,0,0,0,0,0,1015.7,1030.6
2024-03-11T02:54:00+09:00,0.3,��,1,���k��,-1.6,90.9,0,0,0,0,0,0,1015.7,1030.6
2024-03-11T02:55:00+09:00,0.3,���k��,1,���k��,-1.4,91.2,0,0,0,0,0,0,1015.7,1030.6
2024-03-11T02:56:00+09:00,0.3,���k��,1,���k��,-1.3,91.4,0,0,0,0,0,0,1015.6,1030.5
2024-03-11T02:57:00+09:00,0.3,�k��,1,���k��,-1.3,90.9,0,0,0,0,0,0,1015.6,1030.5
2024-03-11T02:58:00+09:00,0.3,�k�k��,1,���k��,-1.3,90.6,0,0,0,0,0,0,1015.6,1030.5
2024-03-11T02:59:00+09:00,0.3,�k,1,���k��,-1.2,90.5,0,0,0,0,0,0,1015.6,1030.5
2024-03-11T03:00:00+09:00,0.3,�k�k��,0.8,���k��,-1.4,89.9,0,0,0,0,0,0,1015.5,1030.4
2024-03-11T03:01:00+09:00,0.3,�k��,0.7,�k��,-1.4,89.6,0,0,0,0,0,0,1015.5,1030.4
2024-03-11T03:02:00+09:00,0.3,�k��,0.7,�k��,-1.4,89.9,0,0,0,0,0,0,1015.5,1030.4
2024-03-11T03:03:00+09:00,0.3,���k��,0.7,�k��,-1.2,90.1,0,0,0,0,0,0,1015.5,1030.4
2024-03-11T03:04:00+09:00,0.3,���k��,0.7,�k��,-1.3,89.8,0,0,0,0,0,0,1015.5,1030.4
2024-03-11T03:05:00+09:00,0.3,��,0.7,�k��,-1.3,89.8,0,0,0,0,0,0,1015.4,1030.3
2024-03-11T03:06:00+09:00,0.3,��,0.7,�k��,-1.2,89.6,0,0,0,0,0,0,1015.4,1030.3
2024-03-11T03:07:00+09:00,0.3,��,0.8,���쐼,-1.3,89.8,0,0,0,0,0,0,1015.3,1030.2
2024-03-11T03:08:00+09:00,0.3,��,0.9,��쐼,-1.3,88.9,0,0,0,0,0,0,1015.3,1030.2
2024-03-11T03:09:00+09:00,0.3,���쐼,0.9,��쐼,-1.5,89.1,0,0,0,0,0,0,1015.2,1030.1
2024-03-11T03:10:00+09:00,0.4,���쐼,0.9,��쐼,-1.2,89.5,0,0,0,0,0,0,1015.3,1030.2
2024-03-11T03:11:00+09:00,0.4,�쐼,1,�쐼,-1.4,90.1,0,0,0,0,0,0,1015.3,1030.2
2024-03-11T03:12:00+09:00,0.4,�쐼,1.1,��쐼,-1.5,89.4,0,0,0,0,0,0,1015.3,1030.2
2024-03-11T03:13:00+09:00,0.5,�쐼,1.1,��쐼,-1.4,90.2,0,0,0,0,0,0,1015.2,1030.1
2024-03-11T03:14:00+09:00,0.5,�쐼,1.1,��쐼,-1.1,91.1,0,0,0,0,0,0,1015.2,1030.1
2024-03-11T03:15:00+09:00,0.5,�쐼,1.1,��쐼,-1.4,90.4,0,0,0,0,0,0,1015.2,1030.1
2024-03-11T03:16:00+09:00,0.6,�쐼,1.1,��쐼,-1,90.6,0,0,0,0,0,0,1015.2,1030.1
2024-03-11T03:17:00+09:00,0.5,�쐼,1.1,��쐼,-0.9,91.2,0,0,0,0,0,0,1015.2,1030.1
2024-03-11T03:18:00+09:00,0.5,�쐼,1.1,��쐼,-1.1,90.1,0,0,0,0,0,0,1015.1,1030
2024-03-11T03:19:00+09:00,0.5,�쐼,1.1,��쐼,-1.2,88.9,0,0,0,0,0,0,1015.1,1030
2024-03-11T03:20:00+09:00,0.5,�쐼,1.1,��쐼,-1.3,89.1,0,0,0,0,0,0,1015.1,1030
2024-03-11T03:21:00+09:00,0.4,���쐼,1.1,��쐼,-1.5,88.8,0,0,0,0,0,0,1015.1,1030
2024-03-11T03:22:00+09:00,0.4,���쐼,1,��쐼,-1.6,88.6,0,0,0,0,0,0,1015.1,1030
2024-03-11T03:23:00+09:00,0.3,��,0.9,�쐼,-1.6,89.2,0,0,0,0,0,0,1015.1,1030
2024-03-11T03:24:00+09:00,0.3,��,0.9,�쐼,-1.6,90.3,0,0,0,0,0,0,1015.1,1030
2024-03-11T03:25:00+09:00,0.3,��,0.7,��,-1.7,90.2,0,0,0,0,0,0,1015.1,1030
2024-03-11T03:26:00+09:00,0.3,���k��,0.7,��,-1.7,90.2,0,0,0,0,0,0,1015.1,1030
2024-03-11T03:27:00+09:00,0.3,���k��,0.7,��,-1.7,90.9,0,0,0,0,0,0,1015,1029.9
2024-03-11T03:28:00+09:00,0.3,�k�k��,0.7,��,-1.5,91.3,0,0,0,0,0,0,1015.1,1030
2024-03-11T03:29:00+09:00,0.3,�k,0.7,��,-1.5,91.5,0,0,0,0,0,0,1015,1029.9
2024-03-11T03:30:00+09:00,0.3,�k��,0.7,��,-1.5,91.3,0,0,0,0,0,0,1015,1029.9
2024-03-11T03:31:00+09:00,0.3,�k��,0.7,��,-1.5,91,0,0,0,0,0,0,1014.9,1029.8
2024-03-11T03:32:00+09:00,0.3,���k��,0.7,��,-1.4,90.8,0,0,0,0,0,0,1015,1029.9
2024-03-11T03:33:00+09:00,0.3,���k��,0.7,��,-1.6,90.5,0,0,0,0,0,0,1015,1029.9
2024-03-11T03:34:00+09:00,0.3,��,0.7,��,-1.6,90.1,0,0,0,0,0,0,1014.9,1029.8
2024-03-11T03:35:00+09:00,0.3,��,0.7,��,-1.5,90.4,0,0,0,0,0,0,1014.9,1029.8
2024-03-11T03:36:00+09:00,0.2,�É�,0.7,��,-1.5,90.4,0,0,0,0,0,0,1014.9,1029.8
2024-03-11T03:37:00+09:00,0.2,�É�,0.7,��,-1.8,89.6,0,0,0,0,0,0,1014.9,1029.8
2024-03-11T03:38:00+09:00,0.2,�É�,0.7,��,-1.6,89.7,0,0,0,0,0,0,1014.8,1029.7
2024-03-11T03:39:00+09:00,0.2,�É�,0.6,��,-1.6,90.2,0,0,0,0,0,0,1014.9,1029.8
2024-03-11T03:40:00+09:00,0.1,�É�,0.5,���k��,-1.6,90.2,0,0,0,0,0,0,1014.8,1029.7
2024-03-11T03:41:00+09:00,0.1,�É�,0.5,���k��,-1.7,90.1,0,0,0,0,0,0,1014.8,1029.7
2024-03-11T03:42:00+09:00,0.1,�É�,0.5,���k��,-1.7,90,0,0,0,0,0,0,1014.8,1029.7
2024-03-11T03:43:00+09:00,0.1,�É�,0.5,���k��,-1.8,90.2,0,0,0,0,0,0,1014.8,1029.7
2024-03-11T03:44:00+09:00,0.1,�É�,0.4,���k��,-1.8,90.2,0,0,0,0,0,0,1014.8,1029.7
2024-03-11T03:45:00+09:00,0.1,�É�,0.4,���k��,-1.7,90.6,0,0,0,0,0,0,1014.8,1029.7
2024-03-11T03:46:00+09:00,0.1,�É�,0.4,���k��,-1.5,91.3,0,0,0,0,0,0,1014.8,1029.7
2024-03-11T03:47:00+09:00,0.1,�É�,0.4,���k��,-1.5,91.1,0,0,0,0,0,0,1014.8,1029.7
2024-03-11T03:48:00+09:00,0,�É�,0.4,���k��,-1.7,90.5,0,0,0,0,0,0,1014.9,1029.8
2024-03-11T03:49:00+09:00,0.1,�É�,0.4,���k��,-1.8,90,0,0,0,0,0,0,1014.9,1029.8
2024-03-11T03:50:00+09:00,0.1,�É�,0.4,���k��,-1.8,90.3,0,0,0,0,0,0,1014.9,1029.8
2024-03-11T03:51:00+09:00,0.1,�É�,0.4,���k��,-1.6,90.9,0,0,0,0,0,0,1015,1029.9
2024-03-11T03:52:00+09:00,0.1,�É�,0.4,���k��,-1.5,91.5,0,0,0,0,0,0,1015,1029.9
2024-03-11T03:53:00+09:00,0.1,�É�,0.5,��,-1.8,90.5,0,0,0,0,0,0,1015,1029.9
2024-03-11T03:54:00+09:00,0.1,�É�,0.5,��,-1.8,90,0,0,0,0,0,0,1015,1029.9
2024-03-11T03:55:00+09:00,0.1,�É�,0.5,��,-1.7,90.6,0,0,0,0,0,0,1015,1029.9
2024-03-11T03:56:00+09:00,0.1,�É�,0.5,��,-1.7,90.9,0,0,0,0,0,0,1015,1029.9
2024-03-11T03:57:00+09:00,0.1,�É�,0.5,��,-1.6,90.9,0,0,0,0,0,0,1015,1029.9
2024-03-11T03:58:00+09:00,0.1,�É�,0.8,�k��,-1.7,90.2,0,0,0,0,0,0,1015,1029.9
2024-03-11T03:59:00+09:00,0.2,�É�,1.1,���k��,-1.8,89.9,0,0,0,0,0,0,1014.9,1029.8
2024-03-11T04:00:00+09:00,0.3,�k��,1.3,���k��,-1.8,90,0,0,0,0,0,0,1014.9,1029.8
2024-03-11T04:01:00+09:00,0.4,���k��,1.5,��,-1.6,90.6,0,0,0,0,0,0,1015,1029.9
2024-03-11T04:02:00+09:00,0.6,�k��,1.6,���k��,-1.6,90.2,0,0,0,0,0,0,1015.1,1030
2024-03-11T04:03:00+09:00,0.7,�k��,1.7,���k��,-1.7,90,0,0,0,0,0,0,1015,1029.9
2024-03-11T04:04:00+09:00,0.9,�k��,2,��,-1.6,89.8,0,0,0,0,0,0,1015.1,1030
2024-03-11T04:05:00+09:00,1,���k��,2.1,��,-1.7,89.6,0,0,0,0,0,0,1015.1,1030
2024-03-11T04:06:00+09:00,1.1,���k��,2.1,��,-1.8,89.2,0,0,0,0,0,0,1015.1,1030
2024-03-11T04:07:00+09:00,1.2,���k��,2.1,��,-1.8,89.2,0,0,0,0,0,0,1015.1,1030
2024-03-11T04:08:00+09:00,1.2,��,2.1,��,-1.7,90.1,0,0,0,0,0,0,1015.1,1030
2024-03-11T04:09:00+09:00,1.2,��,2.1,��,-1.7,89.8,0,0,0,0,0,0,1015.1,1030
2024-03-11T04:10:00+09:00,1.2,��,2.1,��,-1.6,89.9,0,0,0,0,0,0,1015.1,1030
2024-03-11T04:11:00+09:00,1.2,���k��,2.1,��,-1.5,89.9,0,0,0,0,0,0,1015.1,1030
2024-03-11T04:12:00+09:00,1.1,���k��,2.1,��,-1.5,89.4,0,0,0,0,0,0,1015.2,1030.1
2024-03-11T04:13:00+09:00,1.1,���k��,2.1,��,-1.5,89,0,0,0,0,0,0,1015.2,1030.1
2024-03-11T04:14:00+09:00,1,���k��,2.1,��,-1.5,88.7,0,0,0,0,0,0,1015.3,1030.2
2024-03-11T04:15:00+09:00,0.9,���k��,1.6,���쐼,-1.6,88.4,0,0,0,0,0,0,1015.2,1030.1
2024-03-11T04:16:00+09:00,0.8,���k��,1.4,�k��,-1.8,87.7,0,0,0,0,0,0,1015.2,1030.1
2024-03-11T04:17:00+09:00,0.8,���k��,1.4,�k��,-1.9,87.9,0,0,0,0,0,0,1015.2,1030.1
2024-03-11T04:18:00+09:00,0.7,���k��,1.4,�k��,-2,88.1,0,0,0,0,0,0,1015.3,1030.2
2024-03-11T04:19:00+09:00,0.6,�k��,1.4,�k��,-2,88.6,0,0,0,0,0,0,1015.3,1030.2
2024-03-11T04:20:00+09:00,0.6,�k��,1.1,���k��,-1.9,89,0,0,0,0,0,0,1015.3,1030.2
2024-03-11T04:21:00+09:00,0.5,�k��,1.1,���k��,-2,89,0,0,0,0,0,0,1015.2,1030.1
2024-03-11T04:22:00+09:00,0.5,�k��,1.1,���k��,-2,89.1,0,0,0,0,0,0,1015.2,1030.1
2024-03-11T04:23:00+09:00,0.4,�k��,1.1,���k��,-2.1,89.2,0,0,0,0,0,0,1015.2,1030.1
2024-03-11T04:24:00+09:00,0.4,�k��,0.9,���k��,-2,89.5,0,0,0,0,0,0,1015.2,1030.1
2024-03-11T04:25:00+09:00,0.3,�k��,0.7,�k�k��,-1.9,90.2,0,0,0,0,0,0,1015.3,1030.2
2024-03-11T04:26:00+09:00,0.3,�k�k��,0.9,�k�k��,-1.8,90.3,0,0,0,0,0,0,1015.2,1030.1
2024-03-11T04:27:00+09:00,0.4,�k�k��,1.2,�k�k��,-1.9,90.2,0,0,0,0,0,0,1015.2,1030.1
2024-03-11T04:28:00+09:00,0.4,�k�k��,1.2,�k�k��,-1.9,90.1,0,0,0,0,0,0,1015.1,1030
2024-03-11T04:29:00+09:00,0.5,�k,1.2,�k�k��,-1.9,90.1,0,0,0,0,0,0,1015.1,1030
2024-03-11T04:30:00+09:00,0.5,�k,1.2,�k�k��,-1.8,90.2,0,0,0,0,0,0,1015.2,1030.1
2024-03-11T04:31:00+09:00,0.5,�k,1.2,�k�k��,-1.8,90.5,0,0,0,0,0,0,1015.2,1030.1
2024-03-11T04:32:00+09:00,0.5,�k,1.2,�k�k��,-1.8,90.4,0,0,0,0,0,0,1015.2,1030.1
2024-03-11T04:33:00+09:00,0.5,�k,1.2,�k�k��,-1.9,90.3,0,0,0,0,0,0,1015.3,1030.2
2024-03-11T04:34:00+09:00,0.6,�k�k��,1.2,�k�k��,-1.9,90.3,0,0,0,0,0,0,1015.2,1030.1
2024-03-11T04:35:00+09:00,0.6,�k�k��,1.2,�k�k��,-1.9,90.7,0,0,0,0,0,0,1015.3,1030.2
2024-03-11T04:36:00+09:00,0.6,�k�k��,1.2,�k�k��,-1.8,91,0,0,0,0,0,0,1015.3,1030.2
2024-03-11T04:37:00+09:00,0.6,�k�k��,1,�k��,-1.7,91.2,0,0,0,0,0,0,1015.3,1030.2
2024-03-11T04:38:00+09:00,0.6,�k�k��,1,�k��,-1.8,90.9,0,0,0,0,0,0,1015.3,1030.2
2024-03-11T04:39:00+09:00,0.6,�k�k��,1,�k��,-1.8,91.1,0,0,0,0,0,0,1015.3,1030.2
2024-03-11T04:40:00+09:00,0.6,�k�k��,1,�k��,-1.8,91.2,0,0,0,0,0,0,1015.2,1030.1
2024-03-11T04:41:00+09:00,0.6,�k�k��,1,�k��,-1.9,91.1,0,0,0,0,0,0,1015.2,1030.1
2024-03-11T04:42:00+09:00,0.6,�k�k��,1,�k��,-1.9,91.3,0,0,0,0,0,0,1015.2,1030.1
2024-03-11T04:43:00+09:00,0.6,�k�k��,1,�k��,-1.9,91.3,0,0,0,0,0,0,1015.3,1030.2
2024-03-11T04:44:00+09:00,0.5,�k�k��,1,�k��,-1.9,91.6,0,0,0,0,0,0,1015.2,1030.1
2024-03-11T04:45:00+09:00,0.5,�k�k��,1,�k��,-1.8,91.6,0,0,0,0,0,0,1015.2,1030.1
2024-03-11T04:46:00+09:00,0.5,�k�k��,1,�k��,-1.9,91.5,0,0,0,0,0,0,1015.1,1030
2024-03-11T04:47:00+09:00,0.5,�k�k��,1,�k,-1.8,91.5,0,0,0,0,0,0,1015.1,1030
2024-03-11T04:48:00+09:00,0.5,�k�k��,1,�k,-1.9,91.4,0,0,0,0,0,0,1015,1029.9
2024-03-11T04:49:00+09:00,0.5,�k�k��,1,�k,-1.9,91.5,0,0,0,0,0,0,1015.1,1030
2024-03-11T04:50:00+09:00,0.5,�k�k��,0.9,�k�k��,-1.9,91.6,0,0,0,0,0,0,1015,1029.9
2024-03-11T04:51:00+09:00,0.4,�k�k��,0.9,�k�k��,-1.9,91.6,0,0,0,0,0,0,1015,1029.9
2024-03-11T04:52:00+09:00,0.4,�k�k��,0.9,�k�k��,-1.8,91.7,0,0,0,0,0,0,1015,1029.9
2024-03-11T04:53:00+09:00,0.4,�k�k��,0.9,�k�k��,-2,91.5,0,0,0,0,0,0,1015,1029.9
2024-03-11T04:54:00+09:00,0.4,�k�k��,0.9,�k�k��,-1.9,91.7,0,0,0,0,0,0,1015,1029.9
2024-03-11T04:55:00+09:00,0.3,�k�k��,0.9,�k�k��,-1.9,91.8,0,0,0,0,0,0,1015,1029.9
2024-03-11T04:56:00+09:00,0.3,�k�k��,0.9,�k�k��,-2.1,91.4,0,0,0,0,0,0,1015.1,1030
2024-03-11T04:57:00+09:00,0.3,�k,0.9,�k�k��,-2,91.7,0,0,0,0,0,0,1015.1,1030
2024-03-11T04:58:00+09:00,0.3,�k,0.8,�k�k��,-1.9,92,0,0,0,0,0,0,1015.2,1030.1
2024-03-11T04:59:00+09:00,0.2,�É�,0.8,�k�k��,-1.9,91.9,0,0,0,0,0,0,1015.3,1030.2
2024-03-11T05:00:00+09:00,0.2,�É�,1,�쐼,-2,91.9,0,0,0,0,0,0,1015.3,1030.2
2024-03-11T05:01:00+09:00,0.3,�k��,1.1,�쐼,-1.9,91.6,0,0,0,0,0,0,1015.4,1030.3
2024-03-11T05:02:00+09:00,0.3,���k��,1.1,�쐼,-1.8,92.1,0,0,0,0,0,0,1015.4,1030.3
2024-03-11T05:03:00+09:00,0.4,���쐼,1.1,�쐼,-2,91.4,0,0,0,0,0,0,1015.4,1030.3
2024-03-11T05:04:00+09:00,0.4,���쐼,1.2,�쐼,-2,91.3,0,0,0,0,0,0,1015.4,1030.3